Time,TemperatureF,DewpointF,PressureIn,WindDirection,WindDirectionDegrees,WindSpeedMPH,WindSpeedGustMPH,Humidity,HourlyPrecipIn,Conditions,Clouds,dailyrainin,SoftwareType,DateUTC
2013-01-25 00:00:00,21.8,6.0,30.55,North,11,0.0,0.0,50,0.00,,,0.00,Wunderground v.1.15,2013-01-25 05:00:00,
2013-01-25 00:05:00,21.7,5.0,30.54,North,11,0.0,0.0,48,0.00,,,0.00,Wunderground v.1.15,2013-01-25 05:05:00,
2013-01-25 00:10:00,21.7,8.8,30.54,North,11,0.0,0.0,57,0.00,,,0.00,Wunderground v.1.15,2013-01-25 05:10:00,
2013-01-25 00:15:00,21.5,6.6,30.54,North,11,0.0,0.0,52,0.00,,,0.00,Wunderground v.1.15,2013-01-25 05:15:00,
2013-01-25 00:20:00,21.5,4.4,30.54,NNE,14,0.0,0.0,47,0.00,,,0.00,Wunderground v.1.15,2013-01-25 05:20:00,
2013-01-25 00:25:00,21.6,7.1,30.54,NNE,14,0.0,0.0,53,0.00,,,0.00,Wunderground v.1.15,2013-01-25 05:25:00,
2013-01-25 00:30:00,21.5,5.3,30.54,NNE,14,0.0,0.0,49,0.00,,,0.00,Wunderground v.1.15,2013-01-25 05:30:00,
2013-01-25 00:35:00,21.5,7.0,30.53,NNE,14,0.0,0.0,53,0.00,,,0.00,Wunderground v.1.15,2013-01-25 05:35:00,
2013-01-25 00:40:00,21.4,6.5,30.53,NNE,14,0.0,1.0,52,0.00,,,0.00,Wunderground v.1.15,2013-01-25 05:40:00,
2013-01-25 00:45:00,21.4,4.7,30.53,NNE,14,0.0,1.0,48,0.00,,,0.00,Wunderground v.1.15,2013-01-25 05:45:00,
2013-01-25 00:50:00,21.4,6.9,30.53,NNE,14,0.0,0.0,53,0.00,,,0.00,Wunderground v.1.15,2013-01-25 05:50:00,
2013-01-25 00:55:00,21.3,6.0,30.54,NNE,14,0.0,0.0,51,0.00,,,0.00,Wunderground v.1.15,2013-01-25 05:55:00,
2013-01-25 01:00:00,21.2,5.4,30.54,NNE,14,0.0,0.0,50,0.00,,,0.00,Wunderground v.1.15,2013-01-25 06:00:00,
2013-01-25 01:10:00,21.1,6.2,30.54,NNE,14,0.0,0.0,52,0.00,,,0.00,Wunderground v.1.15,2013-01-25 06:10:00,
2013-01-25 01:20:00,20.8,6.3,30.54,NNE,14,0.0,0.0,53,0.00,,,0.00,Wunderground v.1.15,2013-01-25 06:20:00,
2013-01-25 01:25:00,20.7,7.5,30.55,NNE,14,0.0,0.0,56,0.00,,,0.00,Wunderground v.1.15,2013-01-25 06:25:00,
2013-01-25 01:30:00,20.6,7.4,30.55,NNE,14,0.0,0.0,56,0.00,,,0.00,Wunderground v.1.15,2013-01-25 06:30:00,
2013-01-25 01:40:00,20.3,5.9,30.55,NNE,14,0.0,0.0,53,0.00,,,0.00,Wunderground v.1.15,2013-01-25 06:40:00,
2013-01-25 01:45:00,20.2,6.2,30.55,NNE,14,0.0,0.0,54,0.00,,,0.00,Wunderground v.1.15,2013-01-25 06:45:00,
2013-01-25 01:50:00,20.0,6.0,30.55,NNE,14,0.0,0.0,54,0.00,,,0.00,Wunderground v.1.15,2013-01-25 06:50:00,
2013-01-25 01:55:00,19.9,6.3,30.55,NNE,14,0.0,0.0,55,0.00,,,0.00,Wunderground v.1.15,2013-01-25 06:55:00,
2013-01-25 02:00:00,19.7,6.1,30.56,NNE,14,0.0,0.0,55,0.00,,,0.00,Wunderground v.1.15,2013-01-25 07:00:00,
2013-01-25 02:05:00,19.6,6.8,30.56,NNE,14,0.0,0.0,57,0.00,,,0.00,Wunderground v.1.15,2013-01-25 07:05:00,
2013-01-25 02:10:00,19.5,6.3,30.56,NNE,14,0.0,0.0,56,0.00,,,0.00,Wunderground v.1.15,2013-01-25 07:10:00,
2013-01-25 02:15:00,19.4,6.6,30.56,NNE,14,0.0,0.0,57,0.00,,,0.00,Wunderground v.1.15,2013-01-25 07:15:00,
2013-01-25 02:20:00,19.3,7.3,30.56,NNE,14,0.0,0.0,59,0.00,,,0.00,Wunderground v.1.15,2013-01-25 07:20:00,
2013-01-25 02:30:00,19.0,7.7,30.56,NNE,14,0.0,0.0,61,0.00,,,0.00,Wunderground v.1.15,2013-01-25 07:30:00,
2013-01-25 02:40:00,18.8,8.3,30.56,NNE,14,0.0,0.0,63,0.00,,,0.00,Wunderground v.1.15,2013-01-25 07:40:00,
2013-01-25 02:50:00,18.6,8.8,30.56,NNE,14,0.0,0.0,65,0.00,,,0.00,Wunderground v.1.15,2013-01-25 07:50:00,
2013-01-25 03:00:00,18.5,8.7,30.56,NNE,14,0.0,0.0,65,0.00,,,0.00,Wunderground v.1.15,2013-01-25 08:00:00,
2013-01-25 03:05:00,18.5,9.0,30.55,NNE,14,0.0,0.0,66,0.00,,,0.00,Wunderground v.1.15,2013-01-25 08:05:00,
2013-01-25 03:10:00,18.4,8.9,30.55,NNE,14,0.0,0.0,66,0.00,,,0.00,Wunderground v.1.15,2013-01-25 08:10:00,
2013-01-25 03:15:00,18.4,8.9,30.55,NNE,14,0.0,0.0,66,0.00,,,0.00,Wunderground v.1.15,2013-01-25 08:15:00,
2013-01-25 03:20:00,18.3,8.8,30.55,NNE,14,0.0,0.0,66,0.00,,,0.00,Wunderground v.1.15,2013-01-25 08:20:00,
2013-01-25 03:25:00,18.3,8.5,30.55,NNE,14,0.0,0.0,65,0.00,,,0.00,Wunderground v.1.15,2013-01-25 08:25:00,
2013-01-25 03:30:00,18.3,8.5,30.55,NNE,14,0.0,0.0,65,0.00,,,0.00,Wunderground v.1.15,2013-01-25 08:30:00,
2013-01-25 03:35:00,18.4,8.6,30.55,NNE,14,0.0,0.0,65,0.00,,,0.00,Wunderground v.1.15,2013-01-25 08:35:00,
2013-01-25 03:40:00,18.4,8.6,30.55,NNE,14,0.0,0.0,65,0.00,,,0.00,Wunderground v.1.15,2013-01-25 08:40:00,
2013-01-25 03:45:00,18.5,9.0,30.55,NNE,14,0.0,0.0,66,0.00,,,0.00,Wunderground v.1.15,2013-01-25 08:45:00,
2013-01-25 03:50:00,18.4,9.3,30.54,NNE,14,0.0,0.0,67,0.00,,,0.00,Wunderground v.1.15,2013-01-25 08:50:00,
2013-01-25 04:00:00,18.3,8.8,30.53,NNE,14,0.0,0.0,66,0.00,,,0.00,Wunderground v.1.15,2013-01-25 09:00:00,
2013-01-25 04:10:00,18.2,8.7,30.54,NNE,14,0.0,0.0,66,0.00,,,0.00,Wunderground v.1.15,2013-01-25 09:10:00,
2013-01-25 04:20:00,18.0,9.2,30.54,NNE,14,0.0,0.0,68,0.00,,,0.00,Wunderground v.1.15,2013-01-25 09:20:00,
2013-01-25 04:30:00,18.0,9.5,30.54,NNE,14,0.0,0.0,69,0.00,,,0.00,Wunderground v.1.15,2013-01-25 09:30:00,
2013-01-25 04:35:00,18.0,9.2,30.53,NNE,14,0.0,0.0,68,0.00,,,0.00,Wunderground v.1.15,2013-01-25 09:35:00,
2013-01-25 04:40:00,18.0,9.5,30.54,NNE,14,0.0,0.0,69,0.00,,,0.00,Wunderground v.1.15,2013-01-25 09:40:00,
2013-01-25 04:45:00,17.9,9.4,30.54,NNE,14,0.0,0.0,69,0.00,,,0.00,Wunderground v.1.15,2013-01-25 09:45:00,
2013-01-25 04:50:00,18.0,9.9,30.53,NNE,14,0.0,0.0,70,0.00,,,0.00,Wunderground v.1.15,2013-01-25 09:50:00,
2013-01-25 04:55:00,18.0,9.9,30.53,NNE,14,0.0,0.0,70,0.00,,,0.00,Wunderground v.1.15,2013-01-25 09:55:00,
2013-01-25 05:00:00,18.1,10.0,30.53,NNE,14,0.0,0.0,70,0.00,,,0.00,Wunderground v.1.15,2013-01-25 10:00:00,
2013-01-25 05:05:00,18.2,10.1,30.54,NNE,14,0.0,0.0,70,0.00,,,0.00,Wunderground v.1.15,2013-01-25 10:05:00,
2013-01-25 05:10:00,18.4,10.6,30.54,NNE,14,0.0,0.0,71,0.00,,,0.00,Wunderground v.1.15,2013-01-25 10:10:00,
2013-01-25 05:20:00,18.6,10.8,30.54,NNE,14,0.0,0.0,71,0.00,,,0.00,Wunderground v.1.15,2013-01-25 10:20:00,
2013-01-25 05:25:00,18.6,10.8,30.54,NNE,14,0.0,0.0,71,0.00,,,0.00,Wunderground v.1.15,2013-01-25 10:25:00,
2013-01-25 05:30:00,18.8,11.3,30.53,NNE,14,0.0,0.0,72,0.00,,,0.00,Wunderground v.1.15,2013-01-25 10:30:00,
2013-01-25 05:35:00,18.9,10.7,30.53,NNE,14,0.0,0.0,70,0.00,,,0.00,Wunderground v.1.15,2013-01-25 10:35:00,
2013-01-25 05:40:00,19.1,11.2,30.53,NNE,14,0.0,0.0,71,0.00,,,0.00,Wunderground v.1.15,2013-01-25 10:40:00,
2013-01-25 05:45:00,19.1,11.2,30.54,NNE,14,0.0,0.0,71,0.00,,,0.00,Wunderground v.1.15,2013-01-25 10:45:00,
2013-01-25 05:50:00,19.3,10.8,30.53,NNE,14,0.0,0.0,69,0.00,,,0.00,Wunderground v.1.15,2013-01-25 10:50:00,
2013-01-25 05:55:00,19.3,11.1,30.53,NNE,14,0.0,0.0,70,0.00,,,0.00,Wunderground v.1.15,2013-01-25 10:55:00,
2013-01-25 06:00:00,19.5,11.3,30.53,NNE,14,0.0,0.0,70,0.00,,,0.00,Wunderground v.1.15,2013-01-25 11:00:00,
2013-01-25 06:10:00,19.7,10.5,30.54,NNE,14,0.0,0.0,67,0.00,,,0.00,Wunderground v.1.15,2013-01-25 11:10:00,
2013-01-25 06:15:00,19.9,10.7,30.53,NNE,14,0.0,0.0,67,0.00,,,0.00,Wunderground v.1.15,2013-01-25 11:15:00,
2013-01-25 06:20:00,20.0,11.5,30.53,NNE,14,0.0,0.0,69,0.00,,,0.00,Wunderground v.1.15,2013-01-25 11:20:00,
2013-01-25 06:25:00,20.1,10.9,30.52,NNE,14,0.0,0.0,67,0.00,,,0.00,Wunderground v.1.15,2013-01-25 11:25:00,
2013-01-25 06:30:00,20.2,10.6,30.53,NNE,14,0.0,0.0,66,0.00,,,0.00,Wunderground v.1.15,2013-01-25 11:30:00,
2013-01-25 06:35:00,20.4,9.4,30.53,SW,225,0.0,0.0,62,0.00,,,0.00,Wunderground v.1.15,2013-01-25 11:35:00,
2013-01-25 06:40:00,20.6,9.6,30.54,SW,225,0.0,0.0,62,0.00,,,0.00,Wunderground v.1.15,2013-01-25 11:40:00,
2013-01-25 06:45:00,20.8,8.7,30.54,SW,225,0.0,0.0,59,0.00,,,0.00,Wunderground v.1.15,2013-01-25 11:45:00,
2013-01-25 06:50:00,21.0,8.5,30.54,SSW,202,0.0,0.0,58,0.00,,,0.00,Wunderground v.1.15,2013-01-25 11:50:00,
2013-01-25 06:55:00,21.1,8.6,30.53,SSW,202,0.0,0.0,58,0.00,,,0.00,Wunderground v.1.15,2013-01-25 11:55:00,
2013-01-25 07:00:00,21.3,8.8,30.53,SSW,199,0.0,0.0,58,0.00,,,0.00,Wunderground v.1.15,2013-01-25 12:00:00,
2013-01-25 07:05:00,21.3,8.8,30.52,SSW,199,0.0,0.0,58,0.00,,,0.00,Wunderground v.1.15,2013-01-25 12:05:00,
2013-01-25 07:10:00,21.4,8.5,30.52,SSW,198,0.0,0.0,57,0.00,,,0.00,Wunderground v.1.15,2013-01-25 12:10:00,
2013-01-25 07:15:00,21.4,8.9,30.53,SSW,198,0.0,0.0,58,0.00,,,0.00,Wunderground v.1.15,2013-01-25 12:15:00,
2013-01-25 07:20:00,21.4,8.9,30.52,SSW,198,0.0,0.0,58,0.00,,,0.00,Wunderground v.1.15,2013-01-25 12:20:00,
2013-01-25 07:25:00,21.5,9.0,30.52,SSW,198,0.0,0.0,58,0.00,,,0.00,Wunderground v.1.15,2013-01-25 12:25:00,
2013-01-25 07:30:00,21.5,9.4,30.51,SSW,198,0.0,0.0,59,0.00,,,0.00,Wunderground v.1.15,2013-01-25 12:30:00,
2013-01-25 07:35:00,21.5,9.4,30.50,SSW,198,0.0,0.0,59,0.00,,,0.00,Wunderground v.1.15,2013-01-25 12:35:00,
2013-01-25 07:40:00,21.5,9.4,30.50,SSW,198,0.0,0.0,59,0.00,,,0.00,Wunderground v.1.15,2013-01-25 12:40:00,
2013-01-25 07:45:00,21.5,9.0,30.51,SE,139,0.0,0.0,58,0.00,,,0.00,Wunderground v.1.15,2013-01-25 12:45:00,
2013-01-25 07:50:00,21.6,8.7,30.50,SE,124,0.0,0.0,57,0.00,,,0.00,Wunderground v.1.15,2013-01-25 12:50:00,
2013-01-25 07:55:00,21.6,8.7,30.50,East,92,0.0,0.0,57,0.00,,,0.00,Wunderground v.1.15,2013-01-25 12:55:00,
2013-01-25 08:00:00,21.7,8.8,30.49,ESE,103,0.0,0.0,57,0.00,,,0.00,Wunderground v.1.15,2013-01-25 13:00:00,
2013-01-25 08:05:00,21.8,8.9,30.50,ESE,103,0.0,0.0,57,0.00,,,0.00,Wunderground v.1.15,2013-01-25 13:05:00,
2013-01-25 08:10:00,21.9,9.0,30.49,East,98,0.0,0.0,57,0.00,,,0.00,Wunderground v.1.15,2013-01-25 13:10:00,
2013-01-25 08:15:00,22.0,9.1,30.49,ESE,107,0.0,0.0,57,0.00,,,0.00,Wunderground v.1.15,2013-01-25 13:15:00,
2013-01-25 08:20:00,22.2,8.5,30.48,East,80,0.0,1.0,55,0.00,,,0.00,Wunderground v.1.15,2013-01-25 13:20:00,
2013-01-25 08:25:00,22.3,9.0,30.49,SE,124,0.0,1.0,56,0.00,,,0.00,Wunderground v.1.15,2013-01-25 13:25:00,
2013-01-25 08:30:00,22.4,9.1,30.49,ESE,121,0.0,0.0,56,0.00,,,0.00,Wunderground v.1.15,2013-01-25 13:30:00,
2013-01-25 08:35:00,22.5,8.7,30.49,SSE,157,0.0,0.0,55,0.00,,,0.00,Wunderground v.1.15,2013-01-25 13:35:00,
2013-01-25 08:40:00,22.6,8.8,30.50,WSW,246,0.0,0.0,55,0.00,,,0.00,Wunderground v.1.15,2013-01-25 13:40:00,
2013-01-25 08:45:00,22.7,8.5,30.50,SSW,197,0.0,0.0,54,0.00,,,0.00,Wunderground v.1.15,2013-01-25 13:45:00,
2013-01-25 08:50:00,22.8,7.8,30.50,SSE,153,0.0,1.0,52,0.00,,,0.00,Wunderground v.1.15,2013-01-25 13:50:00,
2013-01-25 08:55:00,22.9,7.9,30.49,SSE,150,0.0,1.0,52,0.00,,,0.00,Wunderground v.1.15,2013-01-25 13:55:00,
2013-01-25 09:00:00,23.0,7.5,30.49,East,98,0.0,0.0,51,0.00,,,0.00,Wunderground v.1.15,2013-01-25 14:00:00,
2013-01-25 09:05:00,23.1,7.6,30.49,ESE,123,1.0,1.0,51,0.00,,,0.00,Wunderground v.1.15,2013-01-25 14:05:00,
2013-01-25 09:10:00,23.2,7.3,30.50,South,187,1.0,1.0,50,0.00,,,0.00,Wunderground v.1.15,2013-01-25 14:10:00,
2013-01-25 09:20:00,23.3,7.8,30.50,SSE,163,0.0,0.0,51,0.00,,,0.00,Wunderground v.1.15,2013-01-25 14:20:00,
2013-01-25 09:30:00,23.5,7.6,30.52,SE,136,0.0,0.0,50,0.00,,,0.00,Wunderground v.1.15,2013-01-25 14:30:00,
2013-01-25 09:35:00,23.5,7.1,30.51,SSW,205,0.0,0.0,49,0.00,,,0.00,Wunderground v.1.15,2013-01-25 14:35:00,
2013-01-25 09:40:00,23.5,7.6,30.50,SSW,202,0.0,0.0,50,0.00,,,0.00,Wunderground v.1.15,2013-01-25 14:40:00,
2013-01-25 09:50:00,23.5,7.6,30.50,SE,146,0.0,0.0,50,0.00,,,0.00,Wunderground v.1.15,2013-01-25 14:50:00,
2013-01-25 10:00:00,23.6,7.7,30.50,SSW,192,0.0,1.0,50,0.00,,,0.00,Wunderground v.1.15,2013-01-25 15:00:00,
2013-01-25 10:10:00,23.7,7.7,30.49,South,176,0.0,0.0,50,0.00,,,0.00,Wunderground v.1.15,2013-01-25 15:10:00,
2013-01-25 10:15:00,23.8,7.8,30.49,SW,235,0.0,0.0,50,0.00,,,0.00,Wunderground v.1.15,2013-01-25 15:15:00,
2013-01-25 10:20:00,23.8,8.3,30.47,East,94,0.0,0.0,51,0.00,,,0.00,Wunderground v.1.15,2013-01-25 15:20:00,
2013-01-25 10:25:00,23.9,8.4,30.47,SE,140,0.0,0.0,51,0.00,,,0.00,Wunderground v.1.15,2013-01-25 15:25:00,
2013-01-25 10:30:00,23.9,7.9,30.47,ENE,74,1.0,4.0,50,0.00,,,0.00,Wunderground v.1.15,2013-01-25 15:30:00,
2013-01-25 10:35:00,23.8,8.3,30.46,East,96,1.0,4.0,51,0.00,,,0.00,Wunderground v.1.15,2013-01-25 15:35:00,
2013-01-25 10:40:00,23.8,8.3,30.46,ESE,120,1.0,1.0,51,0.00,,,0.00,Wunderground v.1.15,2013-01-25 15:40:00,
2013-01-25 10:50:00,23.7,8.2,30.46,SE,130,0.0,0.0,51,0.00,,,0.00,Wunderground v.1.15,2013-01-25 15:50:00,
2013-01-25 10:55:00,23.7,8.6,30.45,NE,51,0.0,0.0,52,0.00,,,0.00,Wunderground v.1.15,2013-01-25 15:55:00,
2013-01-25 11:00:00,23.8,8.3,30.45,ESE,107,1.0,1.0,51,0.00,,,0.00,Wunderground v.1.15,2013-01-25 16:00:00,
2013-01-25 11:05:00,23.8,8.3,30.45,SSE,147,1.0,1.0,51,0.00,,,0.00,Wunderground v.1.15,2013-01-25 16:05:00,
2013-01-25 11:10:00,23.9,9.2,30.44,ESE,121,1.0,1.0,53,0.00,,,0.00,Wunderground v.1.15,2013-01-25 16:10:00,
2013-01-25 11:15:00,24.0,9.3,30.44,SSW,204,0.0,3.0,53,0.00,,,0.00,Wunderground v.1.15,2013-01-25 16:15:00,
2013-01-25 11:20:00,24.0,8.9,30.44,SE,126,1.0,1.0,52,0.00,,,0.00,Wunderground v.1.15,2013-01-25 16:20:00,
2013-01-25 11:25:00,23.9,9.2,30.44,SSE,167,1.0,1.0,53,0.00,,,0.00,Wunderground v.1.15,2013-01-25 16:25:00,
2013-01-25 11:30:00,23.9,9.6,30.44,SW,220,0.0,0.0,54,0.00,,,0.00,Wunderground v.1.15,2013-01-25 16:30:00,
2013-01-25 11:40:00,23.9,10.5,30.42,ESE,117,0.0,0.0,56,0.00,,,0.00,Wunderground v.1.15,2013-01-25 16:40:00,
2013-01-25 11:45:00,23.8,10.4,30.42,ESE,115,1.0,1.0,56,0.00,,,0.00,Wunderground v.1.15,2013-01-25 16:45:00,
2013-01-25 11:50:00,23.7,10.7,30.42,South,189,1.0,1.0,57,0.00,,,0.00,Wunderground v.1.15,2013-01-25 16:50:00,
2013-01-25 11:55:00,23.6,11.7,30.41,SE,138,1.0,1.0,60,0.00,,,0.00,Wunderground v.1.15,2013-01-25 16:55:00,
2013-01-25 12:00:00,23.5,12.7,30.40,SE,144,1.0,1.0,63,0.00,,,0.00,Wunderground v.1.15,2013-01-25 17:00:00,
2013-01-25 12:10:00,23.2,14.2,30.38,ESE,109,1.0,1.0,68,0.00,,,0.00,Wunderground v.1.15,2013-01-25 17:10:00,
2013-01-25 12:15:00,23.1,15.1,30.38,SE,142,1.0,2.0,71,0.00,,,0.00,Wunderground v.1.15,2013-01-25 17:15:00,
2013-01-25 12:20:00,23.1,15.4,30.39,SSE,153,1.0,1.0,72,0.00,,,0.00,Wunderground v.1.15,2013-01-25 17:20:00,
2013-01-25 12:25:00,23.0,15.0,30.38,South,175,1.0,1.0,71,0.00,,,0.00,Wunderground v.1.15,2013-01-25 17:25:00,
2013-01-25 12:30:00,22.9,14.9,30.36,SSE,163,1.0,1.0,71,0.00,,,0.00,Wunderground v.1.15,2013-01-25 17:30:00,
2013-01-25 12:35:00,22.8,15.1,30.35,SSE,155,1.0,1.0,72,0.00,,,0.00,Wunderground v.1.15,2013-01-25 17:35:00,
2013-01-25 12:40:00,22.8,15.8,30.36,SSE,162,1.0,1.0,74,0.00,,,0.00,Wunderground v.1.15,2013-01-25 17:40:00,
2013-01-25 12:50:00,22.8,15.4,30.35,SSW,206,1.0,1.0,73,0.00,,,0.00,Wunderground v.1.15,2013-01-25 17:50:00,
2013-01-25 12:55:00,22.8,15.4,30.33,ESE,119,0.0,1.0,73,0.00,,,0.00,Wunderground v.1.15,2013-01-25 17:55:00,
2013-01-25 13:00:00,22.8,15.4,30.33,SE,146,1.0,1.0,73,0.00,,,0.00,Wunderground v.1.15,2013-01-25 18:00:00,
2013-01-25 13:05:00,22.9,15.8,30.33,East,90,1.0,1.0,74,0.00,,,0.00,Wunderground v.1.15,2013-01-25 18:05:00,
2013-01-25 13:10:00,22.9,15.2,30.32,SSE,167,0.0,0.0,72,0.00,,,0.00,Wunderground v.1.15,2013-01-25 18:10:00,
2013-01-25 13:15:00,22.9,15.5,30.32,ESE,112,0.0,2.0,73,0.00,,,0.00,Wunderground v.1.15,2013-01-25 18:15:00,
2013-01-25 13:20:00,22.7,15.0,30.32,SE,136,0.0,0.0,72,0.00,,,0.00,Wunderground v.1.15,2013-01-25 18:20:00,
2013-01-25 13:25:00,22.8,15.4,30.31,SE,133,0.0,0.0,73,0.00,,,0.00,Wunderground v.1.15,2013-01-25 18:25:00,
2013-01-25 13:30:00,22.8,15.4,30.32,South,175,0.0,0.0,73,0.00,,,0.00,Wunderground v.1.15,2013-01-25 18:30:00,
2013-01-25 13:40:00,23.0,16.6,30.32,SSE,150,0.0,0.0,76,0.00,,,0.00,Wunderground v.1.15,2013-01-25 18:40:00,
2013-01-25 13:45:00,23.0,16.9,30.32,SSE,150,0.0,0.0,77,0.00,,,0.00,Wunderground v.1.15,2013-01-25 18:45:00,
2013-01-25 13:50:00,23.1,17.6,30.32,SSE,159,0.0,0.0,79,0.00,,,0.00,Wunderground v.1.15,2013-01-25 18:50:00,
2013-01-25 14:00:00,23.1,18.1,30.30,SSE,165,0.0,0.0,81,0.00,,,0.00,Wunderground v.1.15,2013-01-25 19:00:00,
2013-01-25 14:05:00,23.1,18.4,30.29,SW,217,0.0,0.0,82,0.00,,,0.00,Wunderground v.1.15,2013-01-25 19:05:00,
2013-01-25 14:10:00,23.0,18.6,30.28,SSE,156,0.0,0.0,83,0.00,,,0.00,Wunderground v.1.15,2013-01-25 19:10:00,
2013-01-25 14:15:00,23.0,18.9,30.28,ESE,123,0.0,0.0,84,0.00,,,0.00,Wunderground v.1.15,2013-01-25 19:15:00,
2013-01-25 14:20:00,22.9,18.8,30.28,East,79,0.0,0.0,84,0.00,,,0.00,Wunderground v.1.15,2013-01-25 19:20:00,
2013-01-25 14:30:00,23.1,19.5,30.27,South,183,0.0,0.0,86,0.00,,,0.00,Wunderground v.1.15,2013-01-25 19:30:00,
2013-01-25 14:35:00,23.2,19.6,30.27,ESE,112,0.0,0.0,86,0.00,,,0.00,Wunderground v.1.15,2013-01-25 19:35:00,
2013-01-25 14:40:00,23.3,19.7,30.26,ESE,104,0.0,0.0,86,0.00,,,0.00,Wunderground v.1.15,2013-01-25 19:40:00,
2013-01-25 14:50:00,23.3,20.0,30.26,SE,124,0.0,4.0,87,0.00,,,0.00,Wunderground v.1.15,2013-01-25 19:50:00,
2013-01-25 14:55:00,23.4,20.1,30.26,ESE,108,0.0,4.0,87,0.00,,,0.00,Wunderground v.1.15,2013-01-25 19:55:00,
2013-01-25 15:00:00,23.5,20.5,30.25,ESE,108,0.0,0.0,88,0.00,,,0.00,Wunderground v.1.15,2013-01-25 20:00:00,
2013-01-25 15:10:00,23.7,20.7,30.24,SSE,166,0.0,1.0,88,0.00,,,0.00,Wunderground v.1.15,2013-01-25 20:10:00,
2013-01-25 15:20:00,23.7,20.4,30.23,SSE,168,0.0,0.0,87,0.00,,,0.00,Wunderground v.1.15,2013-01-25 20:20:00,
2013-01-25 15:25:00,23.8,20.8,30.23,South,185,0.0,0.0,88,0.00,,,0.00,Wunderground v.1.15,2013-01-25 20:25:00,
2013-01-25 15:30:00,23.8,20.8,30.23,WSW,238,0.0,0.0,88,0.00,,,0.00,Wunderground v.1.15,2013-01-25 20:30:00,
2013-01-25 15:35:00,23.8,20.8,30.23,SSW,209,0.0,0.0,88,0.00,,,0.00,Wunderground v.1.15,2013-01-25 20:35:00,
2013-01-25 15:40:00,23.9,20.9,30.24,SSW,200,0.0,0.0,88,0.00,,,0.00,Wunderground v.1.15,2013-01-25 20:40:00,
2013-01-25 15:50:00,24.0,21.5,30.23,SSW,200,0.0,0.0,90,0.00,,,0.00,Wunderground v.1.15,2013-01-25 20:50:00,
2013-01-25 15:55:00,24.1,21.3,30.24,SSW,200,0.0,0.0,89,0.00,,,0.00,Wunderground v.1.15,2013-01-25 20:55:00,
2013-01-25 16:00:00,24.2,21.7,30.23,SSW,200,0.0,0.0,90,0.00,,,0.00,Wunderground v.1.15,2013-01-25 21:00:00,
2013-01-25 16:10:00,24.3,21.8,30.22,SSW,200,0.0,0.0,90,0.00,,,0.00,Wunderground v.1.15,2013-01-25 21:10:00,
2013-01-25 16:20:00,24.4,21.9,30.22,SSW,200,0.0,0.0,90,0.00,,,0.00,Wunderground v.1.15,2013-01-25 21:20:00,
2013-01-25 16:25:00,24.5,22.0,30.22,SSW,200,0.0,0.0,90,0.00,,,0.00,Wunderground v.1.15,2013-01-25 21:25:00,
2013-01-25 16:30:00,24.6,22.3,30.22,SSW,200,0.0,0.0,91,0.00,,,0.00,Wunderground v.1.15,2013-01-25 21:30:00,
2013-01-25 16:35:00,24.7,22.4,30.22,SSW,200,0.0,0.0,91,0.00,,,0.00,Wunderground v.1.15,2013-01-25 21:35:00,
2013-01-25 16:40:00,24.7,22.4,30.23,West,267,0.0,0.0,91,0.00,,,0.00,Wunderground v.1.15,2013-01-25 21:40:00,
2013-01-25 16:45:00,24.6,22.3,30.22,West,267,0.0,0.0,91,0.00,,,0.00,Wunderground v.1.15,2013-01-25 21:45:00,
2013-01-25 16:50:00,24.6,22.3,30.22,West,267,0.0,0.0,91,0.00,,,0.00,Wunderground v.1.15,2013-01-25 21:50:00,
2013-01-25 16:55:00,24.7,22.4,30.21,West,267,0.0,0.0,91,0.00,,,0.00,Wunderground v.1.15,2013-01-25 21:55:00,
2013-01-25 17:00:00,24.7,22.4,30.20,West,267,0.0,0.0,91,0.00,,,0.00,Wunderground v.1.15,2013-01-25 22:00:00,
2013-01-25 17:05:00,24.7,22.4,30.20,West,267,0.0,0.0,91,0.00,,,0.00,Wunderground v.1.15,2013-01-25 22:05:00,
2013-01-25 17:10:00,24.7,22.4,30.20,West,267,0.0,0.0,91,0.00,,,0.00,Wunderground v.1.15,2013-01-25 22:10:00,
2013-01-25 17:15:00,24.7,22.4,30.20,West,267,0.0,0.0,91,0.00,,,0.00,Wunderground v.1.15,2013-01-25 22:15:00,
2013-01-25 17:20:00,24.7,22.4,30.19,West,267,0.0,0.0,91,0.00,,,0.00,Wunderground v.1.15,2013-01-25 22:20:00,
2013-01-25 17:25:00,24.8,22.8,30.20,West,267,0.0,0.0,92,0.00,,,0.00,Wunderground v.1.15,2013-01-25 22:25:00,
2013-01-25 17:30:00,24.9,22.9,30.20,West,267,0.0,0.0,92,0.00,,,0.00,Wunderground v.1.15,2013-01-25 22:30:00,
2013-01-25 17:35:00,25.0,23.0,30.19,West,267,0.0,0.0,92,0.00,,,0.00,Wunderground v.1.15,2013-01-25 22:35:00,
2013-01-25 17:40:00,25.0,23.0,30.19,West,267,0.0,0.0,92,0.00,,,0.00,Wunderground v.1.15,2013-01-25 22:40:00,
2013-01-25 17:45:00,25.0,23.0,30.19,South,182,0.0,0.0,92,0.00,,,0.00,Wunderground v.1.15,2013-01-25 22:45:00,
2013-01-25 17:50:00,25.1,23.1,30.20,South,185,0.0,0.0,92,0.00,,,0.00,Wunderground v.1.15,2013-01-25 22:50:00,
2013-01-25 17:55:00,25.1,23.1,30.20,South,184,0.0,0.0,92,0.00,,,0.00,Wunderground v.1.15,2013-01-25 22:55:00,
2013-01-25 18:00:00,25.1,23.1,30.20,South,184,0.0,0.0,92,0.00,,,0.00,Wunderground v.1.15,2013-01-25 23:00:00,
2013-01-25 18:05:00,25.1,23.1,30.21,South,184,0.0,0.0,92,0.00,,,0.00,Wunderground v.1.15,2013-01-25 23:05:00,
2013-01-25 18:10:00,25.1,23.1,30.20,SSW,200,0.0,0.0,92,0.00,,,0.00,Wunderground v.1.15,2013-01-25 23:10:00,
2013-01-25 18:15:00,25.1,23.1,30.20,SSW,200,0.0,0.0,92,0.00,,,0.00,Wunderground v.1.15,2013-01-25 23:15:00,
2013-01-25 18:20:00,25.1,23.1,30.20,SSW,200,0.0,0.0,92,0.00,,,0.00,Wunderground v.1.15,2013-01-25 23:20:00,
2013-01-25 18:30:00,25.2,23.2,30.20,SSW,200,0.0,0.0,92,0.00,,,0.00,Wunderground v.1.15,2013-01-25 23:30:00,
2013-01-25 18:40:00,25.2,23.2,30.19,SSE,166,0.0,0.0,92,0.00,,,0.00,Wunderground v.1.15,2013-01-25 23:40:00,
2013-01-25 18:45:00,25.2,23.2,30.20,SSW,206,0.0,0.0,92,0.00,,,0.00,Wunderground v.1.15,2013-01-25 23:45:00,
2013-01-25 18:50:00,25.2,23.2,30.19,SSW,212,0.0,0.0,92,0.00,,,0.00,Wunderground v.1.15,2013-01-25 23:50:00,
2013-01-25 18:55:00,25.2,23.2,30.19,SSW,206,0.0,0.0,92,0.00,,,0.00,Wunderground v.1.15,2013-01-25 23:55:00,
2013-01-25 19:00:00,25.2,23.2,30.19,SSW,205,0.0,0.0,92,0.00,,,0.00,Wunderground v.1.15,2013-01-26 00:00:00,
2013-01-25 19:05:00,25.3,23.3,30.19,SSW,207,0.0,1.0,92,0.00,,,0.00,Wunderground v.1.15,2013-01-26 00:05:00,